Precipitable_Water
0.17 0.13 0.12 0.16 0.22 0.27 0.28 0.29 0.29 0.37 0.46 0.44 0.43 0.46 0.51 0.57 0.61 0.62 0.63 0.64 0.68 0.70 0.74 0.75 0.81 0.81 0.77 0.76 0.79 0.81 0.87 0.92 0.82 0.76 0.72 0.66 0.58 0.58 0.57 0.58 0.59 0.58 0.57 0.53
0.14 0.11 0.13 0.20 0.24 0.29 0.30 0.29 0.30 0.38 0.45 0.44 0.43 0.43 0.50 0.52 0.53 0.57 0.59 0.61 0.63 0.63 0.66 0.67 0.73 0.77 0.73 0.67 0.69 0.74 0.77 0.79 0.78 0.74 0.69 0.63 0.58 0.57 0.56 0.55 0.53 0.52 0.47 0.43
0.10 0.12 0.15 0.17 0.23 0.24 0.29 0.27 0.28 0.29 0.37 0.41 0.38 0.35 0.38 0.44 0.47 0.50 0.54 0.59 0.59 0.60 0.61 0.63 0.65 0.69 0.75 0.64 0.60 0.65 0.70 0.73 0.71 0.68 0.64 0.61 0.57 0.53 0.45 0.43 0.41 0.38 0.35 0.29
0.12 0.15 0.16 0.15 0.20 0.25 0.21 0.29 0.29 0.29 0.28 0.23 0.36 0.23 0.34 0.38 0.40 0.43 0.46 0.50 0.55 0.61 0.63 0.62 0.62 0.61 0.64 0.64 0.62 0.59 0.61 0.64 0.66 0.65 0.59 0.54 0.46 0.40 0.37 0.32 0.32 0.30 0.29 0.25
0.10 0.13 0.13 0.15 0.18 0.25 0.23 0.30 0.28 0.29 0.30 0.29 0.30 0.26 0.27 0.39 0.36 0.38 0.42 0.45 0.51 0.59 0.61 0.61 0.62 0.61 0.62 0.57 0.56 0.56 0.55 0.55 0.57 0.57 0.52 0.47 0.39 0.36 0.34 0.29 0.24 0.24 0.26 0.26
0.12 0.19 0.17 0.15 0.19 0.24 0.26 0.28 0.30 0.31 0.31 0.23 0.26 0.27 0.25 0.33 0.36 0.41 0.44 0.48 0.51 0.54 0.56 0.60 0.63 0.60 0.54 0.55 0.52 0.50 0.50 0.50 0.49 0.46 0.42 0.37 0.33 0.32 0.27 0.24 0.20 0.21 0.23 0.24
0.12 0.15 0.19 0.19 0.17 0.25 0.28 0.26 0.23 0.23 0.22 0.20 0.31 0.29 0.27 0.34 0.40 0.42 0.42 0.47 0.49 0.54 0.55 0.55 0.56 0.55 0.53 0.51 0.49 0.47 0.45 0.43 0.43 0.41 0.37 0.35 0.31 0.27 0.22 0.22 0.20 0.19 0.21 0.22
0.10 0.10 0.17 0.20 0.21 0.22 0.24 0.25 0.22 0.16 0.18 0.21 0.35 0.26 0.25 0.41 0.46 0.44 0.46 0.48 0.53 0.55 0.55 0.55 0.56 0.55 0.55 0.52 0.49 0.45 0.40 0.38 0.39 0.36 0.33 0.30 0.28 0.24 0.23 0.22 0.22 0.22 0.21 0.22
0.11 0.12 0.21 0.22 0.25 0.28 0.27 0.24 0.30 0.26 0.29 0.24 0.28 0.31 0.34 0.40 0.39 0.41 0.42 0.45 0.47 0.52 0.55 0.56 0.57 0.56 0.53 0.50 0.47 0.41 0.36 0.35 0.35 0.33 0.30 0.27 0.25 0.23 0.21 0.23 0.23 0.23 0.22 0.22
0.19 0.12 0.21 0.23 0.28 0.32 0.29 0.34 0.25 0.28 0.18 0.17 0.21 0.21 0.20 0.25 0.30 0.37 0.40 0.42 0.46 0.49 0.51 0.55 0.54 0.53 0.51 0.46 0.44 0.39 0.32 0.28 0.26 0.26 0.26 0.25 0.25 0.23 0.22 0.22 0.20 0.21 0.21 0.21
0.21 0.18 0.18 0.24 0.22 0.24 0.29 0.28 0.31 0.30 0.25 0.18 0.16 0.17 0.28 0.28 0.30 0.31 0.35 0.39 0.40 0.42 0.44 0.47 0.49 0.50 0.47 0.43 0.37 0.31 0.28 0.25 0.26 0.27 0.26 0.25 0.24 0.23 0.22 0.20 0.21 0.21 0.21 0.21
0.21 0.23 0.18 0.19 0.26 0.28 0.28 0.27 0.30 0.23 0.22 0.24 0.21 0.19 0.34 0.33 0.32 0.35 0.36 0.38 0.40 0.41 0.42 0.44 0.48 0.48 0.42 0.36 0.31 0.26 0.26 0.24 0.25 0.26 0.25 0.25 0.25 0.23 0.21 0.20 0.21 0.23 0.22 0.24
0.21 0.20 0.17 0.19 0.22 0.25 0.23 0.27 0.29 0.29 0.29 0.23 0.19 0.19 0.34 0.32 0.32 0.33 0.32 0.36 0.38 0.37 0.39 0.42 0.45 0.43 0.38 0.34 0.30 0.25 0.26 0.24 0.26 0.27 0.25 0.24 0.23 0.22 0.20 0.21 0.22 0.23 0.23 0.24
0.26 0.21 0.18 0.15 0.19 0.23 0.20 0.22 0.27 0.27 0.21 0.22 0.21 0.21 0.26 0.27 0.30 0.33 0.34 0.36 0.33 0.33 0.36 0.39 0.40 0.40 0.37 0.33 0.28 0.24 0.24 0.26 0.26 0.26 0.24 0.23 0.23 0.22 0.21 0.22 0.22 0.23 0.25 0.24
0.26 0.19 0.22 0.22 0.23 0.23 0.21 0.20 0.22 0.23 0.23 0.19 0.20 0.21 0.24 0.26 0.27 0.28 0.31 0.31 0.30 0.32 0.34 0.37 0.36 0.36 0.35 0.32 0.29 0.26 0.24 0.27 0.27 0.25 0.24 0.23 0.24 0.24 0.22 0.22 0.22 0.23 0.25 0.25
0.28 0.20 0.24 0.21 0.24 0.23 0.21 0.23 0.23 0.24 0.24 0.23 0.23 0.20 0.26 0.30 0.30 0.28 0.28 0.29 0.27 0.29 0.31 0.33 0.35 0.35 0.32 0.30 0.29 0.27 0.24 0.25 0.26 0.24 0.24 0.26 0.24 0.23 0.21 0.22 0.21 0.22 0.25 0.26
0.28 0.24 0.21 0.20 0.24 0.25 0.21 0.21 0.23 0.24 0.25 0.22 0.18 0.18 0.25 0.26 0.26 0.26 0.26 0.27 0.27 0.29 0.29 0.30 0.33 0.33 0.32 0.30 0.30 0.27 0.26 0.25 0.24 0.24 0.25 0.26 0.24 0.22 0.22 0.22 0.22 0.22 0.24 0.25
0.28 0.27 0.24 0.22 0.26 0.18 0.23 0.28 0.26 0.23 0.24 0.26 0.25 0.23 0.24 0.25 0.27 0.29 0.29 0.26 0.28 0.32 0.31 0.30 0.33 0.34 0.32 0.32 0.33 0.33 0.31 0.25 0.24 0.24 0.24 0.25 0.23 0.22 0.23 0.23 0.24 0.24 0.25 0.26
0.35 0.29 0.25 0.22 0.22 0.24 0.26 0.28 0.25 0.23 0.22 0.24 0.23 0.24 0.24 0.24 0.27 0.26 0.30 0.31 0.31 0.33 0.34 0.33 0.34 0.35 0.34 0.33 0.34 0.33 0.32 0.27 0.24 0.23 0.23 0.24 0.23 0.22 0.24 0.24 0.24 0.25 0.26 0.26
0.37 0.33 0.26 0.25 0.21 0.19 0.25 0.30 0.31 0.29 0.19 0.26 0.25 0.23 0.23 0.24 0.19 0.18 0.27 0.32 0.34 0.36 0.37 0.34 0.36 0.36 0.34 0.33 0.35 0.34 0.32 0.29 0.24 0.24 0.22 0.24 0.23 0.23 0.24 0.25 0.25 0.26 0.27 0.26
0.30 0.29 0.24 0.24 0.21 0.24 0.32 0.33 0.33 0.20 0.20 0.26 0.26 0.24 0.23 0.21 0.20 0.19 0.27 0.31 0.34 0.34 0.34 0.37 0.36 0.34 0.33 0.35 0.35 0.32 0.33 0.29 0.27 0.25 0.24 0.25 0.24 0.24 0.25 0.25 0.26 0.25 0.26 0.26
0.28 0.26 0.24 0.26 0.22 0.19 0.34 0.32 0.26 0.29 0.32 0.28 0.25 0.24 0.24 0.25 0.24 0.25 0.27 0.28 0.31 0.33 0.36 0.37 0.35 0.35 0.37 0.36 0.34 0.32 0.32 0.33 0.31 0.26 0.24 0.24 0.24 0.25 0.25 0.24 0.25 0.25 0.25 0.24
0.26 0.30 0.28 0.28 0.26 0.36 0.36 0.32 0.34 0.34 0.31 0.29 0.28 0.26 0.26 0.26 0.26 0.25 0.26 0.27 0.30 0.31 0.35 0.37 0.36 0.36 0.37 0.37 0.36 0.32 0.34 0.36 0.33 0.28 0.24 0.23 0.24 0.25 0.25 0.23 0.23 0.23 0.24 0.23
0.33 0.40 0.32 0.31 0.35 0.37 0.38 0.39 0.39 0.39 0.34 0.33 0.33 0.30 0.28 0.27 0.27 0.27 0.29 0.29 0.30 0.32 0.34 0.36 0.37 0.35 0.36 0.38 0.36 0.35 0.38 0.39 0.35 0.29 0.24 0.23 0.23 0.24 0.25 0.24 0.24 0.23 0.22 0.22
0.37 0.40 0.35 0.36 0.40 0.42 0.41 0.42 0.41 0.40 0.40 0.37 0.36 0.36 0.33 0.30 0.28 0.27 0.29 0.31 0.32 0.32 0.34 0.37 0.35 0.34 0.36 0.39 0.37 0.38 0.39 0.40 0.35 0.31 0.27 0.23 0.23 0.24 0.24 0.24 0.24 0.24 0.25 0.25
0.40 0.38 0.36 0.34 0.45 0.44 0.43 0.45 0.44 0.42 0.41 0.41 0.38 0.34 0.34 0.32 0.29 0.28 0.28 0.31 0.33 0.32 0.34 0.36 0.37 0.37 0.38 0.40 0.39 0.40 0.41 0.41 0.36 0.33 0.29 0.25 0.24 0.25 0.26 0.25 0.25 0.29 0.29 0.28
Wind_Speed
19 18 21 20 18 18 16 16 17 18 19 17 18 19 22 24 23 21 21 19 18 17 16 16 18 16 16 16 16 15 16 16 15 14 13 14 14 15 15 14 14 15 16 16
17 22 21 21 19 19 17 17 16 15 17 17 17 18 22 23 25 25 24 22 21 19 18 17 18 19 16 16 17 17 17 16 16 16 15 15 14 14 14 14 15 15 16 15
20 16 22 22 21 19 18 19 17 16 16 15 16 18 22 24 23 26 27 26 24 23 21 19 17 16 20 17 17 17 18 18 17 16 15 14 15 15 15 15 15 15 14 13
22 23 20 22 22 19 18 19 17 16 17 18 19 18 21 25 25 27 27 27 27 25 22 21 19 18 18 20 19 19 19 18 18 18 17 17 16 15 14 14 13 12 11 10
22 21 22 22 23 21 18 19 19 19 17 15 18 16 16 23 25 25 27 27 27 26 25 23 21 19 17 18 19 19 18 18 18 18 18 16 14 13 12 10 9 8 8 8
25 18 22 25 23 23 18 15 14 16 16 17 20 18 16 19 26 23 24 26 27 27 25 23 21 19 18 17 16 16 17 17 16 16 15 14 12 10 9 8 7 7 8 8
22 26 22 20 22 22 21 17 14 13 15 16 15 17 19 17 21 25 24 24 25 27 26 24 21 20 19 18 18 17 16 15 15 14 12 11 10 9 8 7 7 7 8 9
24 23 27 25 25 23 24 23 17 13 13 13 15 18 16 20 22 20 23 22 24 25 25 24 23 21 20 19 18 17 16 15 14 12 11 10 9 8 7 7 7 8 9 9
22 23 23 24 22 25 22 25 21 14 12 11 15 16 16 15 17 18 19 20 24 25 24 24 22 20 18 19 19 17 15 14 13 12 11 9 8 8 7 7 8 8 8 9
19 21 24 24 21 21 25 23 19 16 14 14 13 13 13 13 17 17 19 21 22 24 25 23 21 20 18 18 17 16 16 15 14 12 11 10 8 8 7 7 7 7 8 8
22 19 23 24 26 24 20 22 18 18 15 14 11 13 13 15 14 18 18 19 20 22 23 22 21 19 17 18 18 17 16 15 14 12 11 9 8 7 7 6 6 6 6 7
29 20 23 26 23 25 24 24 23 20 18 13 12 13 9 11 15 17 17 18 18 20 22 21 20 18 16 17 17 17 16 15 14 12 11 10 8 7 6 6 6 6 7 7
29 26 19 20 22 23 26 25 24 21 18 20 15 13 11 9 10 14 15 17 17 19 21 21 21 19 18 18 19 18 17 15 14 12 11 10 9 8 7 6 6 6 6 6
27 26 28 26 24 25 24 25 25 24 21 19 19 15 14 11 11 13 14 16 17 19 22 22 21 20 20 20 20 18 17 16 14 13 11 10 9 8 7 7 6 6 5 6
23 27 27 27 25 24 25 25 25 24 22 22 19 18 18 17 16 17 16 15 16 18 22 23 22 21 21 21 20 19 18 17 15 13 12 11 10 9 8 7 6 5 6 6
25 24 24 28 26 26 25 27 27 25 24 20 21 21 19 18 15 15 17 18 18 20 22 24 23 22 22 22 21 20 19 17 16 14 12 11 10 9 8 7 6 6 6 7
24 24 22 25 26 23 25 30 27 25 25 24 23 21 20 19 19 18 19 20 19 20 22 24 24 24 23 23 22 21 20 18 16 15 13 11 10 9 9 8 7 7 7 8
23 23 23 23 22 25 26 29 30 28 26 26 23 22 23 23 24 23 22 22 22 21 22 24 25 24 24 25 23 22 20 19 18 16 14 13 11 11 10 9 8 8 8 9
25 22 20 21 24 24 23 25 26 25 26 26 27 24 24 21 20 22 23 23 22 23 23 24 25 25 25 26 25 23 21 20 19 17 16 14 13 12 11 10 9 9 9 11
23 22 22 21 22 25 26 24 24 22 25 25 26 24 24 21 22 23 22 24 22 22 23 23 25 25 26 26 26 24 23 22 21 19 18 16 15 13 12 11 10 10 11 12
22 22 23 22 22 22 24 23 21 22 23 23 26 26 25 24 24 22 24 24 24 22 22 23 25 26 27 27 27 26 24 23 23 21 20 18 17 15 14 13 12 13 13 14
24 23 23 22 22 24 23 21 24 23 23 21 20 22 26 25 24 22 25 26 25 24 24 24 25 26 27 27 28 27 25 25 23 23 22 20 19 17 16 15 15 15 15 16
24 25 24 24 25 23 23 23 22 22 23 22 22 21 21 22 26 24 24 27 29 26 26 26 25 26 27 28 28 27 27 25 24 24 23 22 21 20 18 17 17 16 17 18
25 26 25 22 23 22 19 20 19 21 22 22 23 22 22 22 22 25 28 26 28 29 28 27 26 26 27 28 29 29 27 26 25 24 24 24 23 21 20 19 18 18 18 19
23 22 26 26 25 22 22 20 19 20 19 20 22 22 21 21 21 20 24 28 29 30 30 30 28 26 27 28 28 28 28 27 25 25 24 24 23 23 21 20 20 19 20 20
20 22 21 22 23 24 23 22 23 19 19 21 22 23 23 21 20 21 23 26 29 30 30 31 30 28 27 28 28 28 28 28 26 25 24 24 24 23 22 21 20 20 20 20
Wind_Direction
221 221 221 217 218 216 213 210 215 220 219 223 233 226 220 220 221 220 222 224 226 224 225 228 227 231 230 228 228 227 227 231 236 245 258 269 278 284 287 293 296 302 304 306
224 227 221 215 216 211 211 207 214 218 220 223 229 234 228 226 229 226 226 227 225 226 226 231 233 232 231 230 234 236 237 240 247 256 264 270 275 280 285 290 297 302 305 307
221 224 212 214 212 210 216 208 213 214 217 229 223 243 233 233 233 230 231 229 226 225 229 232 230 231 231 232 236 239 241 245 250 257 261 268 273 278 282 288 293 300 304 307
227 221 214 213 214 211 214 215 211 207 218 230 231 245 238 231 233 232 230 230 229 229 231 229 231 237 234 233 237 242 245 247 252 256 263 267 270 273 278 283 289 296 304 311
225 219 216 217 213 209 217 209 211 216 219 226 233 242 247 224 230 231 227 228 228 226 225 229 232 232 232 233 235 240 244 249 252 256 259 263 264 266 271 277 285 293 305 313
221 219 214 213 210 210 209 211 222 219 224 236 231 231 242 227 227 227 227 228 225 223 224 225 228 228 229 230 233 239 242 246 249 251 253 254 254 253 256 267 278 290 299 307
219 225 220 209 204 210 205 201 209 221 232 237 229 235 237 235 233 228 227 226 221 218 219 221 222 225 228 232 236 240 241 242 242 242 243 240 237 241 248 261 275 288 297 304
213 219 210 209 210 209 209 208 211 215 224 237 226 233 234 238 236 230 231 225 217 215 217 219 222 226 231 231 232 234 235 232 230 228 226 226 228 236 248 263 277 289 297 303
211 221 211 207 208 203 213 211 211 215 233 227 233 247 255 239 226 224 221 214 214 213 214 215 220 226 230 227 228 228 223 219 216 216 216 219 228 241 254 268 281 290 298 304
216 213 212 207 205 213 208 205 208 224 216 233 244 245 235 230 223 220 218 216 213 212 213 215 219 223 226 222 223 219 214 211 209 210 215 222 232 246 257 268 279 288 298 306
212 211 214 204 209 206 206 211 213 214 222 223 231 241 237 232 215 210 211 211 209 208 208 212 216 220 220 217 215 210 207 204 205 210 217 225 235 246 256 265 276 288 299 308
211 212 214 214 218 215 215 214 213 217 227 230 225 239 237 237 222 217 213 211 209 207 208 210 211 212 211 207 203 200 200 202 207 215 221 227 233 239 248 261 273 285 295 303
208 216 213 213 219 218 215 217 217 218 222 224 221 235 236 225 208 207 206 207 210 209 208 209 208 208 208 205 202 202 204 208 212 216 219 223 229 237 246 256 269 280 292 303
207 214 214 216 216 214 215 217 217 216 221 220 227 225 230 216 209 208 208 209 211 210 207 207 208 209 207 204 203 204 207 209 211 214 217 223 230 237 243 251 263 275 288 302
207 216 216 219 218 216 219 219 217 220 221 220 221 223 227 224 222 220 219 215 213 212 208 208 208 208 206 205 205 206 207 208 210 214 219 225 230 235 238 244 256 271 285 300
218 217 216 221 219 217 219 218 217 220 221 225 221 231 230 229 227 220 218 216 217 214 211 209 208 208 207 206 206 206 207 209 211 215 219 224 227 230 234 240 253 267 281 295
217 214 215 222 217 215 228 218 217 221 224 222 224 230 227 226 224 222 220 219 219 216 212 210 210 209 209 207 206 207 208 210 212 215 219 223 225 228 232 239 254 265 278 293
219 214 217 220 211 219 227 222 219 221 226 228 231 227 229 231 230 230 226 222 221 219 215 214 213 211 209 208 208 209 210 212 213 216 219 222 224 226 231 240 254 268 280 293
216 212 214 215 222 227 228 220 216 220 232 229 230 229 233 234 232 235 226 225 224 221 221 216 213 212 210 209 209 210 212 213 215 218 220 222 224 226 232 242 255 270 282 294
214 218 215 217 217 223 227 225 221 222 235 229 227 228 230 225 232 232 227 226 227 225 220 216 213 212 211 210 210 211 214 216 217 219 221 223 225 229 236 246 257 272 283 293
214 218 215 221 225 234 228 222 218 220 235 233 229 230 230 232 238 234 226 224 223 220 216 215 213 212 212 211 211 214 216 219 220 221 222 224 228 233 240 250 260 272 283 292
216 215 220 222 224 232 222 224 224 234 236 235 234 231 232 235 238 231 227 224 221 220 217 215 214 214 213 213 213 216 219 221 221 222 224 227 231 237 244 252 262 272 282 291
226 221 221 221 229 234 232 236 236 236 239 236 232 233 234 234 234 230 230 226 222 218 217 215 215 215 215 215 216 218 220 220 221 223 226 230 234 239 246 253 262 272 281 290
227 224 224 228 231 232 231 231 235 238 241 238 232 232 231 234 236 233 231 226 221 220 218 215 215 216 216 217 218 220 220 221 222 226 229 232 235 240 247 256 263 272 280 288
225 228 222 228 232 228 228 232 236 238 238 235 232 228 229 230 235 235 230 225 223 221 219 217 216 217 217 216 218 220 221 221 225 229 231 233 236 240 248 255 263 271 279 287
223 222 222 220 224 226 230 233 235 235 239 237 234 233 232 233 236 239 235 229 223 220 218 217 218 219 218 218 220 221 222 222 225 230 232 234 237 242 248 255 263 271 279 285